Weather History for Red Bluff, CA

Change the Weather History Date:

Monday, September 9, 2013

  Actual Average Record
Temperature  
Mean Temperature 88 °F -  
Max Temperature 107 °F 93 °F 112 °F (1944)
Min Temperature 68 °F 61 °F 51 °F (1964)
Cooling Degree Days 22    
Growing Degree Days 38 (Base 50)    
Moisture  
Dew Point 36 °F    
Average Humidity 18    
Maximum Humidity 42    
Minimum Humidity 4    
Precipitation  
Precipitation 0.00 in - - ()
Sea Level Pressure  
Sea Level Pressure 29.70 in    
Wind  
Wind Speed 9 mph (NNW)    
Max Wind Speed 20 mph    
Max Gust Speed 24 mph    
Visibility 10 miles    
Events      
Averages and records for this station are not official NWS values.
T = Trace of Precipitation, MM = Missing Value Source: NWS Daily Summary

Daily Weather History Graph

Daily Weather History Graph

Search for Another Location

Airport:

Trip Planner

Search our weather history database for the weather conditions in past years. The results will help you decide how hot, cold, wet, or windy it might be!

Date:

Astronomy

Sep. 09, 2013 Rise Set
Actual Time 6:44 AM PDT 7:27 PM PDT
Civil Twilight 6:17 AM PDT 7:54 PM PDT
Nautical Twilight 5:44 AM PDT 8:26 PM PDT
Astronomical Twilight 5:11 AM PDT 9:00 PM PDT
Moon 11:12 AM PDT (9/9) 9:47 PM PDT (9/9)
Length of Visible Light 13h 37m
Length of Day
12h 42m
Waxing Crescent, 20% of the Moon is Illuminated
Sep 9
Waxing Crescent
Sep 12
First Quarter
Sep 19
Full
Sep 26
Last Quarter
Oct 4
New

Hourly Weather History & Observations

Time (PDT) Temp. Dew Point Humidity Pressure Visibility Wind Dir Wind Speed Gust Speed Precip Events Conditions
12:54 AM 71.1 °F 41.0 °F 34% 29.76 in 10.0 mi NW 8.1 mph - N/A   Clear
1:54 AM 73.9 °F 41.0 °F 30% 29.76 in 10.0 mi NW 8.1 mph - N/A   Clear
2:54 AM 72.0 °F 41.0 °F 33% 29.76 in 10.0 mi NW 6.9 mph - N/A   Clear
3:54 AM 69.1 °F 41.0 °F 36% 29.76 in 10.0 mi NW 4.6 mph - N/A   Clear
4:54 AM 69.1 °F 41.0 °F 36% 29.76 in 10.0 mi NNW 4.6 mph - N/A   Clear
5:54 AM 68.0 °F 44.1 °F 42% 29.76 in 10.0 mi North 6.9 mph - N/A   Clear
6:54 AM 75.9 °F 42.1 °F 30% 29.77 in 10.0 mi NNW 9.2 mph - N/A   Clear
7:54 AM 82.9 °F 42.1 °F 24% 29.77 in 10.0 mi NNW 9.2 mph - N/A   Clear
8:54 AM 88.0 °F 42.1 °F 20% 29.78 in 10.0 mi North 17.3 mph 24.2 mph N/A   Clear
9:54 AM 91.0 °F 42.1 °F 18% 29.78 in 10.0 mi North 19.6 mph - N/A   Clear
10:54 AM 93.9 °F 42.1 °F 17% 29.77 in 10.0 mi North 16.1 mph - N/A   Clear
11:54 AM 97.0 °F 39.9 °F 14% 29.75 in 10.0 mi North 11.5 mph - N/A   Clear
12:54 PM 100.9 °F 37.9 °F 11% 29.73 in 10.0 mi NNW 9.2 mph - N/A   Clear
1:54 PM 104.0 °F 35.1 °F 9% 29.70 in 10.0 mi North 9.2 mph 19.6 mph N/A   Clear
2:54 PM 105.1 °F 32.0 °F 8% 29.67 in 10.0 mi NNW 10.4 mph - N/A   Clear
3:54 PM 102.9 °F 28.9 °F 7% 29.65 in 10.0 mi NW 12.7 mph - N/A   Clear
4:54 PM 107.1 °F 25.0 °F 6% 29.63 in 10.0 mi North 9.2 mph - N/A   Clear
5:54 PM 105.1 °F 25.0 °F 6% 29.62 in 10.0 mi North 8.1 mph - N/A   Clear
6:54 PM 96.1 °F 25.0 °F 8% 29.61 in 10.0 mi NW 3.5 mph - N/A   Clear
7:54 PM 89.1 °F 30.0 °F 12% 29.61 in 10.0 mi West 6.9 mph - N/A   Clear
8:54 PM 84.9 °F 30.9 °F 14% 29.62 in 10.0 mi WNW 8.1 mph - N/A   Clear
9:54 PM 82.9 °F 30.0 °F 15% 29.63 in 10.0 mi WNW 9.2 mph - N/A   Clear
10:54 PM 84.0 °F 32.0 °F 15% 29.64 in 10.0 mi NNW 8.1 mph - N/A   Clear
11:54 PM 82.0 °F 35.1 °F 18% 29.65 in 10.0 mi NNW 5.8 mph - N/A   Clear